Regional Weather Roundup
Issued by NWS Little Rock, AR

Home | Current Version | Previous Version | Text Only | Print | Product List | Glossary Off
Versions: 1 2 3 4 5 6 7 8 9 10 11 12 13 14 15 16 17 18 19 20 21 22 23 24 25 26 27 28 29 30 31 32 33 34 35 36 37 38 39 40 41 42 43 44 45 46 47 48 49

000
ASUS44 KLZK 261205
RWRLZK

WEATHER ROUNDUP FOR ARKANSAS
NATIONAL WEATHER SERVICE LITTLE ROCK AR
700 AM CDT THU MAR 26 2015

NOTE: "FAIR" INDICATES FEW OR NO CLOUDS BELOW 12,000 FEET WITH NO
SIGNIFICANT WEATHER AND/OR OBSTRUCTIONS TO VISIBILITY.

ARZ001-003-010-029-261300-
NORTHWEST ARKANSAS

CITY           SKY/WX    TMP DP  RH WIND       PRES   REMARKS
FAYETTEVILLE   LGT RAIN  44  44 100 N9G21     30.04R FOG
6HR MIN TEMP:  44; 6HR MAX TEMP:  54; 6HR PCP:  0.18;

FORT SMITH     RAIN      51  45  79 N15       29.99R
6HR MIN TEMP:  50; 6HR MAX TEMP:  57; 6HR PCP:  0.39;

HARRISON       LGT RAIN  43  43 100 N8        30.02R FOG
6HR MIN TEMP:  43; 6HR MAX TEMP:  53; 6HR PCP:  0.26;

BENTONVILLE    CLOUDY    45  39  81 N15       30.06R
6HR MIN TEMP:  45; 6HR MAX TEMP:  52; 6HR PCP:  0.01;

ROGERS         LGT RAIN  43  41  93 N10       30.06R
6HR MIN TEMP:  43; 6HR MAX TEMP:  47; 6HR PCP: TRACE;

SILOAM SPGS    CLOUDY    45  37  76 N16       30.08R
6HR MIN TEMP:  45; 6HR MAX TEMP:  52;

HIGHFILL       LGT RAIN  44  41  89 N16       30.06R
6HR MIN TEMP:  44; 6HR MAX TEMP:  52; 6HR PCP:  0.01;

SPRINGDALE     DRIZZLE   45  43  93 NE13G24     N/A  FOG
$$

ARZ004-005-016-261300-
NORTH CENTRAL ARKANSAS

CITY           SKY/WX    TMP DP  RH WIND       PRES   REMARKS
BATESVILLE     CLOUDY    54  50  87 NW10G21   29.94R
6HR MIN TEMP:  54; 6HR MAX TEMP:  61; 6HR PCP:  0.64;

FLIPPIN        CLOUDY    45  39  81 N10G17    30.00R
6HR MIN TEMP:  45; 6HR MAX TEMP:  55; 6HR PCP:  0.40;

MTN HOME       LGT RAIN  45  44  97 VRB6      29.99R
6HR MIN TEMP:  45; 6HR MAX TEMP:  54; 6HR PCP:  0.30;

$$

ARZ040-041-261300-
WEST CENTRAL ARKANSAS

CITY           SKY/WX    TMP DP  RH WIND       PRES   REMARKS
MENA           CLOUDY    55  52  88 W9        29.94R
MOUNT IDA      CLOUDY    58  57  97 VRB5      29.89R
6HR MIN TEMP:  57; 6HR MAX TEMP:  69; 6HR PCP:  0.44;

$$

ARZ009-017-025-026-028-261300-
NORTHEAST ARKANSAS

CITY           SKY/WX    TMP DP  RH WIND       PRES   REMARKS
CORNING        LGT RAIN  50  48  93 N17G24    29.97R
JONESBORO      LGT RAIN  55  54  96 NE8       29.92R
6HR MIN TEMP:  55; 6HR MAX TEMP:  64; 6HR PCP:  0.20;

NEWPORT        LGT RAIN  58  58 100 E8        29.89F
6HR MIN TEMP:  57; 6HR MAX TEMP:  62; 6HR PCP:  0.42;

BLYTHEVILLE    CLOUDY    54  54 100 N21       29.95R
6HR MIN TEMP:  54; 6HR MAX TEMP:  62; 6HR PCP:  0.07;

$$

ARZ022-023-033-042-044-261300-
CENTRAL ARKANSAS

CITY           SKY/WX    TMP DP  RH WIND       PRES   REMARKS
LITTLE ROCK    CLOUDY    58  54  86 SE3       29.88F
6HR MIN TEMP:  58; 6HR MAX TEMP:  69; 6HR PCP:  0.16;

N LITTLE ROCK    N/A     57  57  99 SE3       29.88R
6HR MIN TEMP:  57; 6HR MAX TEMP:  67;

JACKSONVILLE   CLOUDY    57  56  98 S2        29.87S
6HR MIN TEMP:  57; 6HR MAX TEMP:  67; 6HR PCP:  0.18;

SEARCY         LGT RAIN  57  56  96 W3        29.92R
6HR MIN TEMP:  56; 6HR MAX TEMP:  65; 6HR PCP:  0.22;

HOT SPRINGS    CLOUDY    57  55  93 CALM      29.90R
6HR MIN TEMP:  57; 6HR MAX TEMP:  69; 6HR PCP:  0.17;

RUSSELLVILLE     N/A     55  52  89 N8        29.90
CLINTON        CLOUDY    54  50  87 CALM      29.97R FOG
$$

ARZ036-261300-
EAST ARKANSAS

CITY           SKY/WX    TMP DP  RH WIND       PRES   REMARKS
WEST MEMPHIS   CLOUDY    58  58 100 CALM      29.89R
6HR MIN TEMP:  58; 6HR MAX TEMP:  66; 6HR PCP:  0.01;

$$

ARZ050-053-066-070-073-261300-
SOUTHWEST ARKANSAS

CITY           SKY/WX    TMP DP  RH WIND       PRES   REMARKS
ARKADELPHIA    FAIR      58  58 100 CALM      29.90S
6HR MIN TEMP:  58; 6HR MAX TEMP:  65; 6HR PCP:  0.20;

CAMDEN         MOCLDY    59  55  88 MISG      29.91F
TEXARKANA      LGT RAIN  61  61 100 E3        29.88F FOG
6HR MIN TEMP:  61; 6HR MAX TEMP:  68; 6HR PCP:  0.12;

EL DORADO      LGT RAIN  60  58  92 N5        29.90S
6HR MIN TEMP:  60; 6HR MAX TEMP:  64; 6HR PCP: TRACE;

$$

ARZ056-057-069-261300-
SOUTHEAST ARKANSAS

CITY           SKY/WX    TMP DP  RH WIND       PRES   REMARKS
PINE BLUFF     LGT RAIN  58  55  90 NE7       29.90R
6HR MIN TEMP:  58; 6HR MAX TEMP:  67; 6HR PCP:  0.12;

STUTTGART      CLOUDY    59  54  82 SE8       29.90F
6HR MIN TEMP:  59; 6HR MAX TEMP:  66; 6HR PCP:  0.09;

MONTICELLO     LGT RAIN  60  56  86 CALM      29.93R
6HR MIN TEMP:  59; 6HR MAX TEMP:  65; 6HR PCP: TRACE;


$$





USA.gov is the U.S. government's official web portal to all federal, state and local government web resources and services.